Location: Cosy Dell
(34.2789°N, 117.4537°W)
Time: 21:07:55
(UTC+00:00)

Cosmos 44 - Pass Details

Date: 14 July 2020
Orbit: 586 x 776 km, 65.1° (Epoch: 13 August)

Event Time Altitude Azimuth Distance (km) Brightness Sun altitude
Rises 04:20:04 0° 199° (SSW) 2,799 6.2 -14.2°
Reaches altitude 10° 04:22:18 10° 195° (SSW) 1,899 5.3 -14.5°
Maximum altitude 04:26:29 60° 115° (ESE) 674 2.9 -15.2°
Drops below altitude 10° 04:30:45 10° 36° (NE) 1,938 5.7 -15.9°
Sets 04:33:04 0° 33° (NNE) 2,862 6.6 -16.2°
